Temperature
20 20 19 19 19 18 18 18 18 17 17 17 17 17 16 16 16 16 16 16 16 16 16 16 16 16 16 15 15 15 15 15 15 14 13 13 13 12 12 12 12 12 12
20 20 19 19 18 18 18 18 17 17 17 17 17 16 16 16 16 16 16 16 16 16 16 16 16 15 15 15 15 15 15 14 14 14 13 13 12 12 12 12 12 11 11
20 19 19 19 18 18 18 18 17 17 17 16 16 16 16 16 16 16 16 16 16 16 16 15 15 15 15 15 14 14 14 14 14 13 13 12 12 12 12 12 11 11 11
20 19 19 19 18 18 18 18 17 17 16 16 16 16 16 16 16 15 15 15 15 15 15 15 15 15 14 14 14 14 14 13 13 13 13 12 12 12 12 11 11 11 11
19 19 19 18 18 18 18 17 17 17 16 16 16 16 15 15 15 15 15 15 15 15 15 14 14 14 14 14 14 13 13 13 13 13 13 12 12 11 12 11 11 11 11
19 19 19 18 18 18 17 17 17 17 16 16 16 15 15 15 15 15 15 14 14 14 14 14 14 14 14 14 13 13 13 13 13 13 12 12 12 11 11 11 11 11 10
19 19 18 18 18 18 17 17 17 17 16 16 16 15 15 15 15 15 15 14 14 14 14 14 14 14 13 13 13 13 13 13 12 12 12 12 11 11 11 11 10 11 10
19 19 18 18 18 18 17 17 17 16 16 16 16 15 15 15 15 15 15 14 14 14 14 13 13 13 13 13 12 12 12 12 12 12 12 11 11 11 11 10 10 10 10
19 18 18 18 18 17 17 17 17 16 16 16 15 15 15 15 15 15 14 14 14 14 13 13 13 13 13 13 12 12 12 12 12 12 12 11 11 11 10 10 10 10 10
19 18 18 18 18 17 17 17 16 16 16 15 15 15 15 15 15 15 14 14 13 13 13 13 13 13 13 13 12 12 11 11 11 11 11 11 11 11 10 10 10 10 10
19 18 18 18 18 17 17 17 16 16 16 15 15 15 14 14 14 14 14 14 13 13 13 13 13 13 12 12 12 11 11 11 11 11 11 10 10 10 10 10 10 10 10
18 18 18 17 17 17 16 16 16 15 15 15 15 14 14 14 14 14 14 14 13 13 12 12 12 12 12 12 11 11 11 11 11 11 11 10 10 10 10 10 9 9 9
18 18 17 17 17 16 16 16 15 15 15 14 14 14 14 14 14 14 14 13 13 12 12 12 12 12 11 11 11 11 11 11 11 11 11 10 10 10 10 9 9 9 9
18 18 17 17 16 16 16 15 15 15 15 14 14 14 14 14 13 13 13 13 13 12 12 12 11 11 11 11 11 11 10 10 10 10 10 10 10 10 9 10 9 9 9
17 17 17 16 16 16 15 15 15 15 15 14 14 14 14 13 13 13 13 13 12 12 12 11 11 11 11 11 11 10 10 10 10 10 10 10 10 10 9 9 9 9 9
17 17 16 16 16 15 15 15 15 15 14 14 14 14 14 13 13 13 13 13 12 12 12 12 11 11 11 11 11 10 10 10 10 10 10 10 10 10 9 9 9 9 9
17 17 16 16 16 15 15 15 15 15 15 14 14 14 14 13 13 13 13 12 12 12 11 11 11 11 11 11 11 10 10 10 9 10 9 9 9 9 9 9 9 9 9
16 16 16 16 16 15 15 15 15 15 14 14 14 14 14 13 13 13 12 12 12 11 11 11 11 11 11 10 10 10 10 10 9 9 9 9 9 9 9 9 9 9 9
16 16 16 16 16 15 15 15 15 15 14 14 14 14 14 13 13 13 12 12 12 12 11 11 11 11 10 10 10 10 9 9 9 9 9 9 9 9 9 9 9 9 8
16 16 16 16 16 15 15 15 15 14 14 14 14 14 13 13 13 12 12 12 12 11 11 11 11 10 10 10 9 9 9 9 9 9 9 9 9 9 9 9 9 9 9
15 15 15 15 15 15 15 15 15 14 14 14 14 14 13 13 13 12 12 12 11 11 11 11 10 10 10 9 9 9 9 9 9 8 8 8 8 8 8 8 8 8 8
15 16 16 15 15 15 15 14 14 14 14 14 13 13 13 13 12 12 12 12 11 11 11 10 10 10 9 9 9 9 9 8 8 8 8 8 8 8 8 8 8 8 8
15 15 15 15 15 15 14 14 14 14 14 13 13 13 13 12 12 12 12 11 11 11 10 10 9 9 9 9 9 8 8 8 8 8 8 8 8 8 8 8 8 8 8
15 15 15 15 14 14 14 14 14 14 13 13 13 12 12 12 12 11 11 11 10 10 10 10 9 9 9 9 8 8 8 8 8 7 7 7 8 8 8 7 7 7 7
14 14 14 14 14 14 14 14 14 13 13 13 12 12 12 11 11 11 11 10 10 10 10 9 9 9 8 8 8 8 8 8 8 7 7 7 7 7 7 7 7 7 7
14 14 14 14 14 14 13 13 13 13 13 12 12 11 11 11 11 11 11 10 10 10 9 9 9 9 8 8 8 8 8 8 7 7 7 7 7 7 7 7 7 7 7
Wind_Speed
7 6 5 5 4 4 3 2 1 1 1 1 0 0 1 1 1 1 1 1 1 2 2 1 1 2 1 0 0 1 1 2 3 3 3 4 3 2 4 4 5 5 6
7 7 6 5 5 4 3 2 2 2 1 1 1 1 1 1 1 1 1 2 1 1 1 1 1 0 1 1 1 1 1 1 3 4 3 3 3 3 3 3 4 4 5
8 7 7 6 5 5 4 3 2 2 2 2 1 1 1 1 1 1 1 1 2 2 2 2 1 1 1 1 1 1 1 2 2 3 4 3 3 3 3 3 3 2 4
8 8 7 6 6 5 4 4 3 3 3 2 2 2 1 1 1 1 1 1 2 2 2 2 2 2 1 2 1 1 1 2 3 3 4 4 3 2 2 3 3 2 2
9 8 7 7 7 6 5 5 4 3 3 3 2 2 2 2 2 1 1 1 2 2 2 2 3 4 5 3 2 1 1 2 3 3 3 3 3 2 2 2 2 2 2
9 9 8 8 7 7 6 5 5 4 3 3 3 2 2 2 4 4 1 2 2 2 3 3 4 4 5 5 5 5 3 1 2 2 2 3 3 2 2 2 2 2 2
10 9 9 8 8 7 7 6 5 5 4 3 3 2 2 3 4 3 3 2 3 3 3 2 2 4 4 4 5 5 4 4 2 0 2 2 3 3 3 3 2 1 0
10 9 9 8 8 7 7 6 5 4 4 3 3 3 3 3 3 2 0 3 3 3 2 2 2 3 3 3 4 4 4 3 2 1 2 1 1 2 3 2 2 2 2
10 9 9 9 9 8 7 6 5 5 4 4 3 3 3 3 3 1 1 3 3 3 3 3 2 3 4 2 4 4 4 4 6 8 7 5 4 3 1 2 2 3 2
10 10 9 9 9 8 8 7 6 5 5 4 4 3 3 3 3 1 3 3 3 3 3 3 5 4 4 1 3 3 3 3 3 4 5 4 4 5 3 1 2 2 2
10 10 9 9 9 8 8 7 6 6 5 4 4 4 3 3 4 2 2 1 2 2 3 3 4 6 4 2 1 2 2 2 3 3 4 4 3 3 2 1 1 2 2
9 9 9 9 8 8 8 7 7 6 6 6 5 4 4 4 3 4 2 1 2 1 1 2 4 6 4 1 1 3 1 2 2 2 2 2 2 2 2 1 0 1 2
9 9 9 9 8 8 9 8 8 7 6 6 6 5 4 4 5 6 5 2 0 0 2 6 5 5 4 3 3 2 3 2 1 2 2 1 1 1 1 1 2 2 1
9 9 9 9 9 8 7 7 7 7 6 6 5 5 5 5 4 4 4 4 5 3 3 5 6 5 2 2 3 3 1 0 1 1 1 1 1 1 1 1 1 2 2
9 8 9 8 8 8 7 5 6 4 3 4 5 5 4 4 4 3 3 4 4 3 3 3 3 3 3 2 2 2 2 2 1 1 1 1 1 2 2 1 2 3 2
9 9 8 8 8 7 7 6 2 2 4 2 1 2 2 3 7 5 3 2 2 3 4 3 3 3 3 3 3 3 3 2 2 2 2 2 2 2 2 2 2 3 3
8 8 7 7 8 8 8 8 7 4 4 4 4 3 3 5 7 7 6 5 5 6 5 4 4 3 3 3 3 3 3 2 3 3 3 3 3 3 3 3 3 3 3
8 8 7 7 7 7 7 7 7 7 7 6 6 8 8 8 8 8 8 7 5 6 6 5 4 4 3 3 3 3 3 3 3 4 3 3 4 4 4 4 3 4 4
7 7 6 6 7 7 7 7 7 7 7 6 5 6 9 9 8 8 9 6 6 6 6 5 4 4 3 3 3 3 3 3 3 4 4 4 4 4 4 4 4 3 5
6 6 7 7 7 7 7 7 7 7 7 7 6 5 7 7 7 7 8 7 6 5 5 4 4 4 3 3 3 4 4 4 4 4 4 4 4 4 5 6 6 5 5
6 7 9 8 7 7 7 7 7 6 6 6 6 5 6 7 7 7 7 6 6 5 5 5 4 4 4 4 4 4 5 4 3 4 4 4 4 5 5 5 6 6 6
6 7 8 7 6 7 7 7 6 6 6 6 4 5 8 6 5 5 6 5 6 5 5 5 5 4 4 4 4 5 5 5 4 4 4 5 5 6 6 6 6 6 7
6 7 6 6 6 6 7 6 6 6 5 5 5 5 5 6 6 6 6 5 5 5 5 5 5 4 4 4 5 4 5 5 5 5 5 6 6 6 6 7 8 8 8
7 7 7 6 6 6 6 6 6 6 5 5 5 5 5 5 5 6 5 5 5 5 4 4 4 5 5 5 5 5 4 4 6 6 8 8 8 7 7 7 8 8 8
6 6 6 6 6 6 6 6 6 5 5 5 5 5 5 4 4 4 4 4 5 4 5 4 4 5 6 6 5 4 3 3 5 7 8 8 8 8 8 9 8 8 8
6 6 6 5 5 5 5 5 5 5 5 4 4 4 5 5 4 4 4 4 5 4 5 5 5 5 5 5 5 4 4 5 6 8 10 8 8 7 7 8 9 9 9
Wind_Direction
169 168 169 163 159 155 151 151 154 144 127 103 44 52 45 25 3 333 332 333 343 347 354 4 342 321 308 289 220 234 236 195 175 141 122 119 123 123 119 115 114 114 108
163 160 159 155 151 149 144 138 127 122 124 126 108 93 85 61 12 356 348 11 22 14 8 21 15 51 91 90 101 111 114 144 160 145 140 145 146 145 139 137 122 115 110
160 157 154 153 152 151 148 142 139 136 131 120 108 93 74 64 46 34 31 39 47 44 36 46 51 64 80 87 101 115 137 142 146 143 137 139 136 135 138 129 116 115 120
160 159 156 157 156 152 148 145 144 144 138 129 118 101 83 67 59 55 60 65 67 64 54 53 52 61 81 98 112 126 131 138 140 143 140 143 140 143 153 146 138 135 121
163 160 158 154 151 149 148 146 144 143 139 130 118 105 92 82 56 58 97 96 89 82 72 70 64 59 50 50 51 85 141 158 156 148 147 149 147 167 170 177 155 146 127
166 163 157 156 153 153 154 153 150 146 137 129 120 111 93 68 46 29 19 91 90 90 85 83 92 90 89 81 64 54 47 123 140 152 156 154 161 172 167 181 168 182 173
166 163 162 160 158 160 160 155 152 150 146 139 131 123 107 77 59 46 13 87 93 84 83 84 81 90 107 101 101 106 78 56 46 253 152 177 173 170 186 190 187 224 201
166 166 164 163 161 162 161 158 157 158 156 149 142 136 126 101 89 97 62 116 99 94 92 92 95 102 96 107 115 108 102 87 83 94 89 81 111 153 193 200 186 175 181
170 170 169 169 165 167 167 162 161 162 159 157 145 137 126 109 88 99 240 133 115 102 94 85 96 99 71 66 119 114 107 105 92 92 89 92 83 99 167 202 186 200 205
173 172 170 171 170 171 168 165 163 165 164 158 141 137 132 123 106 113 271 149 129 124 116 104 82 80 83 26 128 124 120 114 116 120 121 131 131 130 155 227 225 231 227
171 169 170 172 173 171 167 167 169 172 165 156 148 147 141 126 134 133 307 160 140 138 125 117 98 93 93 33 342 114 116 156 149 143 136 132 132 129 139 138 316 299 293
170 171 173 173 173 169 169 171 176 177 170 166 164 169 158 150 142 148 151 10 340 132 118 108 105 114 112 109 83 89 126 239 167 147 137 125 129 123 118 125 80 342 345
171 174 175 175 173 173 176 177 182 189 189 181 181 182 171 160 152 154 159 151 327 157 85 74 102 139 151 143 125 149 203 209 158 160 144 134 130 105 131 151 162 167 187
176 177 175 177 177 176 182 187 193 191 192 191 191 190 178 171 170 168 174 171 172 175 148 125 138 156 183 123 149 176 210 224 231 196 184 166 156 168 200 204 225 227 224
176 178 181 184 179 178 185 189 199 192 196 204 198 195 190 189 162 157 201 191 192 172 166 171 174 172 183 180 183 187 202 192 209 233 225 214 211 213 216 235 265 272 270
182 183 186 186 182 185 182 179 108 150 137 154 310 272 186 134 140 159 177 163 137 161 204 199 199 205 205 201 203 200 203 210 224 232 236 246 247 240 242 244 250 261 272
188 184 186 188 184 188 189 188 184 176 172 190 202 216 214 168 165 175 180 176 174 184 210 220 220 221 220 221 219 219 216 209 223 237 240 246 248 252 257 258 258 260 268
190 183 187 186 187 190 193 197 195 190 191 196 199 194 191 188 184 182 178 179 188 203 223 224 221 224 226 229 229 231 231 225 229 240 245 249 249 251 255 262 264 272 276
188 183 185 185 191 192 195 201 202 202 199 191 186 177 182 184 184 187 188 209 212 213 219 221 220 220 222 225 229 233 234 234 240 244 241 245 249 252 259 267 269 254 269
188 178 186 191 193 195 198 204 205 205 207 204 200 189 172 183 195 190 199 216 222 221 220 217 216 218 216 217 224 231 238 241 242 246 248 251 254 258 260 263 270 271 265
189 183 188 198 198 199 201 206 209 211 212 211 206 180 180 202 206 202 204 211 219 220 217 217 216 219 217 217 221 230 240 243 244 252 252 253 256 260 266 270 271 272 275
194 195 197 200 199 202 204 207 210 210 212 214 206 175 177 211 210 206 210 214 218 219 215 215 220 220 221 219 224 234 241 246 246 251 257 259 258 258 261 265 267 270 272
200 198 198 202 204 193 200 207 206 209 209 207 203 198 194 209 215 213 213 215 215 213 209 211 215 215 211 221 228 236 243 249 253 258 260 260 262 262 263 264 265 267 268
201 200 202 201 203 202 200 202 205 209 210 209 207 209 207 208 215 215 214 212 210 208 203 205 210 209 209 216 222 226 238 256 260 253 256 261 262 263 264 263 265 268 268
202 201 202 202 204 201 200 201 205 208 210 210 209 210 208 206 207 207 204 203 202 201 198 199 206 210 214 218 222 224 218 239 259 267 257 257 261 264 268 268 269 272 271
202 198 196 197 201 201 200 201 204 205 205 204 203 205 206 203 201 201 199 200 202 199 204 204 204 207 212 215 218 213 210 229 248 263 262 262 263 265 269 268 270 269 272
Height
1548 1549 1550 1550 1551 1552 1553 1553 1553 1553 1553 1552 1551 1551 1551 1550 1550 1550 1549 1549 1548 1548 1547 1547 1546 1546 1546 1546 1546 1546 1546 1546 1546 1547 1548 1549 1549 1550 1550 1550 1550 1550 1550
1546 1547 1548 1549 1550 1550 1551 1551 1552 1552 1551 1551 1550 1550 1550 1550 1549 1548 1548 1548 1547 1547 1546 1546 1545 1545 1544 1544 1544 1544 1544 1544 1545 1545 1546 1547 1548 1549 1549 1550 1550 1550 1549
1544 1546 1547 1548 1549 1549 1550 1550 1551 1551 1551 1550 1550 1549 1549 1549 1548 1548 1548 1547 1547 1546 1545 1545 1544 1544 1543 1543 1543 1543 1543 1544 1544 1545 1545 1546 1547 1548 1548 1548 1549 1548 1549
1543 1544 1545 1547 1548 1549 1549 1550 1550 1550 1550 1550 1549 1549 1549 1548 1548 1548 1547 1547 1546 1546 1545 1544 1544 1543 1543 1543 1543 1543 1543 1543 1543 1544 1545 1545 1546 1546 1547 1547 1547 1547 1548
1541 1542 1544 1545 1546 1547 1548 1549 1549 1549 1550 1549 1549 1549 1548 1548 1548 1547 1547 1547 1546 1546 1545 1544 1543 1543 1542 1542 1543 1542 1542 1543 1543 1543 1544 1545 1545 1545 1546 1546 1547 1547 1546
1539 1541 1542 1543 1545 1546 1547 1548 1548 1549 1549 1549 1548 1548 1548 1548 1547 1547 1547 1546 1546 1546 1545 1544 1544 1543 1542 1542 1541 1541 1542 1542 1542 1543 1543 1544 1544 1544 1544 1545 1545 1545 1546
1537 1539 1541 1542 1544 1545 1546 1547 1547 1547 1548 1548 1548 1548 1547 1547 1546 1546 1546 1546 1546 1545 1545 1545 1544 1543 1542 1541 1541 1541 1541 1541 1541 1542 1543 1543 1543 1543 1543 1543 1544 1544 1544
1536 1538 1539 1540 1542 1544 1545 1545 1546 1546 1547 1547 1547 1547 1547 1546 1546 1546 1546 1546 1545 1545 1545 1544 1544 1543 1542 1541 1541 1541 1540 1540 1540 1541 1541 1541 1541 1541 1542 1542 1542 1543 1543
1533 1535 1537 1538 1540 1542 1543 1544 1545 1545 1546 1546 1546 1546 1546 1546 1546 1545 1545 1546 1545 1545 1545 1544 1543 1543 1542 1541 1541 1541 1540 1540 1540 1540 1539 1540 1540 1540 1540 1542 1542 1542 1542
1531 1533 1534 1536 1538 1539 1541 1542 1543 1544 1545 1545 1545 1545 1545 1545 1545 1545 1545 1546 1545 1545 1545 1544 1543 1543 1542 1541 1541 1540 1540 1540 1540 1539 1539 1539 1540 1540 1540 1540 1541 1542 1542
1529 1530 1532 1534 1535 1537 1538 1540 1541 1542 1543 1543 1544 1544 1544 1545 1545 1545 1545 1545 1545 1545 1545 1544 1543 1542 1541 1541 1540 1540 1539 1539 1539 1539 1540 1540 1540 1540 1540 1540 1540 1541 1541
1526 1528 1529 1531 1533 1535 1536 1537 1539 1540 1541 1542 1542 1543 1544 1543 1544 1544 1544 1544 1544 1545 1545 1544 1543 1542 1541 1541 1540 1539 1539 1539 1539 1540 1540 1540 1540 1540 1540 1539 1539 1538 1538
1523 1525 1527 1529 1530 1532 1534 1535 1536 1538 1539 1540 1541 1542 1543 1543 1542 1543 1543 1543 1543 1543 1544 1543 1543 1542 1542 1541 1540 1539 1539 1539 1539 1540 1540 1540 1540 1540 1539 1538 1538 1537 1537
1521 1522 1524 1526 1528 1530 1531 1533 1534 1536 1537 1538 1540 1541 1541 1541 1541 1541 1541 1542 1542 1542 1542 1542 1542 1542 1541 1541 1540 1539 1539 1539 1539 1539 1539 1539 1539 1539 1539 1538 1538 1537 1537
1518 1519 1521 1524 1525 1527 1528 1530 1531 1532 1534 1535 1537 1538 1539 1539 1539 1539 1540 1540 1540 1541 1541 1541 1541 1541 1541 1540 1540 1539 1539 1539 1538 1538 1538 1538 1538 1538 1537 1537 1537 1536 1536
1514 1516 1518 1521 1522 1524 1525 1527 1528 1529 1530 1532 1533 1534 1535 1536 1536 1537 1537 1538 1538 1538 1539 1540 1540 1540 1540 1539 1539 1538 1538 1537 1537 1537 1537 1537 1537 1536 1536 1536 1535 1535 1534
1511 1513 1515 1517 1519 1521 1523 1524 1525 1526 1527 1529 1530 1531 1532 1533 1533 1534 1535 1535 1536 1536 1537 1537 1538 1538 1538 1537 1537 1537 1536 1536 1535 1536 1536 1535 1535 1535 1534 1534 1533 1533 1532
1508 1510 1512 1514 1516 1518 1520 1522 1523 1523 1524 1525 1527 1527 1528 1529 1530 1531 1532 1532 1533 1533 1534 1534 1534 1535 1535 1535 1535 1535 1534 1534 1533 1533 1533 1533 1533 1533 1532 1532 1531 1530 1529
1505 1506 1508 1510 1513 1515 1517 1519 1520 1521 1521 1522 1523 1524 1525 1526 1527 1527 1528 1529 1530 1530 1530 1531 1531 1532 1532 1532 1532 1532 1532 1532 1531 1531 1531 1530 1530 1530 1530 1529 1528 1527 1527
1502 1503 1505 1508 1510 1512 1513 1515 1516 1517 1518 1519 1520 1521 1521 1522 1523 1524 1524 1525 1526 1527 1527 1527 1528 1528 1528 1528 1529 1529 1529 1529 1528 1528 1528 1528 1528 1527 1527 1526 1525 1525 1523
1500 1501 1503 1505 1507 1508 1510 1511 1512 1513 1514 1515 1516 1516 1517 1519 1520 1520 1520 1521 1522 1522 1523 1523 1524 1524 1525 1525 1525 1525 1525 1526 1525 1525 1525 1524 1524 1524 1523 1523 1522 1521 1520
1498 1499 1500 1501 1503 1504 1505 1507 1508 1509 1510 1511 1512 1513 1513 1515 1516 1516 1517 1517 1518 1518 1519 1519 1520 1520 1521 1521 1521 1521 1522 1522 1521 1521 1521 1521 1520 1520 1520 1519 1518 1517 1516
1493 1495 1496 1498 1499 1500 1501 1503 1504 1505 1506 1507 1508 1509 1510 1511 1511 1512 1513 1513 1514 1514 1515 1515 1516 1516 1517 1517 1517 1517 1517 1517 1517 1517 1517 1517 1517 1516 1515 1514 1513 1512 1511
1489 1491 1492 1494 1495 1497 1497 1499 1500 1501 1502 1504 1504 1505 1506 1506 1507 1508 1508 1509 1510 1510 1511 1511 1512 1512 1512 1512 1513 1513 1513 1512 1512 1513 1512 1512 1512 1511 1511 1510 1508 1508 1507
1485 1487 1488 1490 1492 1493 1494 1495 1496 1498 1499 1499 1500 1501 1502 1502 1503 1503 1504 1505 1506 1506 1507 1507 1508 1508 1508 1509 1509 1508 1508 1507 1507 1508 1507 1508 1507 1507 1506 1505 1504 1503 1502
1483 1484 1485 1487 1488 1490 1491 1492 1493 1494 1495 1495 1496 1497 1498 1498 1499 1500 1500 1501 1502 1502 1503 1504 1504 1504 1505 1505 1505 1504 1504 1503 1503 1503 1503 1503 1503 1502 1501 1500 1499 1498 1497